| time (UTC) | temp C | wind direction | speed KPH | gust KPH | rain 1hr cm | rain 24hr cm | rain mn cm | humidity % | barometer mb |
| 20260906162352 | 22 | 119 | 8.0 | 17.7 | 0.00 | 0.00 | 0.00 | 89 | 1014.6 |
| 20260906161503 | 21 | 105 | 8.0 | 22.5 | 0.00 | 0.00 | 0.00 | 90 | 1014.9 |
| 20260906160217 | 22 | 105 | 14.5 | 25.7 | 0.00 | 0.00 | 0.00 | 90 | 1014.8 |
| 20260906160103 | 21 | 79 | 12.9 | 27.4 | 0.00 | 0.00 | 0.00 | 90 | 1014.9 |
| 20260906155203 | 22 | 131 | 12.9 | 22.5 | 0.00 | 0.00 | 0.00 | 90 | 1014.7 |
| 20260906154505 | 21 | 155 | 14.5 | 22.5 | 0.00 | 0.00 | 0.00 | 91 | 1014.7 |
| 20260906154129 | 21 | 92 | 12.9 | 25.7 | 0.00 | 0.00 | 0.00 | 91 | 1014.6 |
| 20260906153105 | 21 | 114 | 12.9 | 25.7 | 0.00 | 0.00 | 0.00 | 91 | 1014.6 |
| 20260906152127 | 21 | 105 | 12.9 | 22.5 | 0.00 | 0.00 | 0.00 | 92 | 1014.8 |
| 20260906150015 | 21 | 91 | 9.7 | 22.5 | 0.00 | 0.00 | 0.00 | 94 | 1015.0 |
| 20260906150002 | 20 | 80 | 11.3 | 19.3 | 0.00 | 0.00 | 0.00 | 94 | 1015.0 |
| 20260906144605 | 20 | 49 | 12.9 | 24.1 | 0.00 | 0.00 | 0.00 | 94 | 1014.9 |
| 20260906143918 | 20 | 90 | 11.3 | 20.9 | 0.00 | 0.00 | 0.00 | 94 | 1014.8 |
| 20260906143002 | 20 | 96 | 12.9 | 19.3 | 0.00 | 0.00 | 0.00 | 94 | 1014.8 |
| 20260906142901 | 20 | 101 | 11.3 | 17.7 | 0.00 | 0.00 | 0.00 | 94 | 1014.7 |
| 20260906141905 | 20 | 143 | 11.3 | 25.7 | 0.00 | 0.00 | 0.00 | 95 | 1014.7 |
| 20260906141603 | 20 | 124 | 11.3 | 27.4 | 0.00 | 0.00 | 0.00 | 94 | 1014.7 |
| 20260906140002 | 20 | 103 | 16.1 | 25.7 | 0.00 | 0.00 | 0.00 | 93 | 1014.8 |
| 20260906135730 | 20 | 136 | 12.9 | 22.5 | 0.00 | 0.00 | 0.00 | 93 | 1014.7 |
| 20260906134709 | 21 | 125 | 9.7 | 19.3 | 0.00 | 0.00 | 0.00 | 93 | 1014.6 |
| 20260906134605 | 20 | 117 | 12.9 | 20.9 | 0.00 | 0.00 | 0.00 | 93 | 1014.6 |
| 20260906133644 | 21 | 119 | 9.7 | 17.7 | 0.00 | 0.00 | 0.00 | 93 | 1014.5 |
| 20260906133006 | 20 | 147 | 11.3 | 16.1 | 0.00 | 0.00 | 0.00 | 93 | 1014.5 |
| 20260906131605 | 20 | 110 | 8.0 | 16.1 | 0.00 | 0.00 | 0.00 | 94 | 1014.3 |
| 20260906131517 | 20 | 73 | 6.4 | 11.3 | 0.00 | 0.00 | 0.00 | 94 | 1014.2 |
| 20260906130537 | 20 | 94 | 6.4 | 11.3 | 0.00 | 0.00 | 0.00 | 94 | 1014.0 |
| 20260906130006 | 20 | 60 | 8.0 | 12.9 | 0.00 | 0.00 | 0.00 | 95 | 1014.1 |
| 20260906125551 | 20 | 70 | 4.8 | 11.3 | 0.00 | 0.00 | 0.00 | 95 | 1014.1 |
| 20260906124602 | 19 | 72 | 4.8 | 11.3 | 0.00 | 0.00 | 0.00 | 95 | 1014.1 |
| 20260906124541 | 19 | 92 | 3.2 | 9.7 | 0.00 | 0.00 | 0.00 | 95 | 1014.0 |
| 20260906123522 | 19 | 104 | 3.2 | 6.4 | 0.00 | 0.00 | 0.00 | 95 | 1013.9 |
| 20260906123003 | 18 | 106 | 4.8 | 8.0 | 0.00 | 0.00 | 0.00 | 95 | 1013.9 |
| 20260906122544 | 19 | 93 | 3.2 | 4.8 | 0.00 | 0.00 | 0.00 | 96 | 1013.8 |
| 20260906121607 | 18 | 84 | 4.8 | 6.4 | 0.00 | 0.00 | 0.00 | 96 | 1014.0 |
| 20260906121548 | 19 | 87 | 1.6 | 4.8 | 0.00 | 0.00 | 0.00 | 96 | 1013.9 |
| 20260906120513 | 18 | 91 | 1.6 | 1.6 | 0.00 | 0.00 | 0.00 | 96 | 1013.9 |
| 20260906120140 | 18 | 98 | 1.6 | 4.8 | 0.00 | 0.00 | 0.00 | 96 | 1014.0 |
| 20260906115531 | 18 | 98 | 1.6 | 4.8 | 0.00 | 0.00 | 0.00 | 95 | 1013.8 |
| 20260906114517 | 19 | 104 | 3.2 | 4.8 | 0.00 | 0.00 | 0.00 | 96 | 1013.8 |
| 20260906114507 | 18 | 105 | 3.2 | 6.4 | 0.00 | 0.00 | 0.00 | 96 | 1013.7 |
| 20260906113458 | 19 | 102 | 3.2 | 4.8 | 0.00 | 0.00 | 0.00 | 96 | 1013.7 |
| 20260906113102 | 18 | 109 | 3.2 | 6.4 | 0.00 | 0.00 | 0.00 | 96 | 1013.8 |
| 20260906112458 | 19 | 103 | 3.2 | 4.8 | 0.00 | 0.00 | 0.00 | 96 | 1013.7 |
| 20260906111515 | 19 | 80 | 3.2 | 9.7 | 0.00 | 0.00 | 0.00 | 95 | 1013.6 |
| 20260906111503 | 18 | 89 | 3.2 | 9.7 | 0.00 | 0.00 | 0.00 | 95 | 1013.6 |
| 20260906110501 | 19 | 101 | 4.8 | 9.7 | 0.00 | 0.00 | 0.00 | 95 | 1013.6 |
| 20260906104502 | 18 | 110 | 4.8 | 8.0 | 0.00 | 0.00 | 0.00 | 95 | 1013.5 |
| 20260906104321 | 19 | 103 | 3.2 | 4.8 | 0.00 | 0.00 | 0.00 | 95 | 1013.4 |
| 20260906103325 | 19 | 108 | 1.6 | 6.4 | 0.00 | 0.00 | 0.00 | 94 | 1013.5 |
| 20260906103103 | 19 | 98 | 1.6 | 8.0 | 0.00 | 0.00 | 0.00 | 95 | 1013.5 |
| 20260906102253 | 20 | 107 | 3.2 | 6.4 | 0.00 | 0.00 | 0.00 | 95 | 1013.6 |
| 20260906101502 | 19 | 99 | 4.8 | 9.7 | 0.00 | 0.00 | 0.00 | 95 | 1013.5 |
| 20260906100125 | 20 | 96 | 3.2 | 6.4 | 0.00 | 0.00 | 0.00 | 95 | 1013.4 |
| 20260906100104 | 19 | 99 | 4.8 | 8.0 | 0.00 | 0.00 | 0.00 | 95 | 1013.4 |
| 20260906095123 | 19 | 112 | 1.6 | 4.8 | 0.00 | 0.00 | 0.00 | 95 | 1013.2 |
| 20260906094502 | 19 | 81 | 1.6 | 6.4 | 0.00 | 0.00 | 0.00 | 95 | 1013.2 |
| 20260906093105 | 20 | 77 | 3.2 | 4.8 | 0.00 | 0.00 | 0.00 | 94 | 1013.0 |
| 20260906092953 | 20 | 79 | 1.6 | 8.0 | 0.00 | 0.00 | 0.00 | 94 | 1013.0 |
| 20260906091943 | 20 | 79 | 3.2 | 8.0 | 0.00 | 0.00 | 0.00 | 94 | 1012.7 |
| 20260906091506 | 20 | 84 | 4.8 | 9.7 | 0.00 | 0.00 | 0.00 | 94 | 1012.7 |
| 20260906090922 | 20 | 90 | 3.2 | 6.4 | 0.00 | 0.00 | 0.00 | 94 | 1012.7 |
| 20260906085931 | 20 | 93 | 4.8 | 12.9 | 0.00 | 0.00 | 0.00 | 93 | 1012.6 |
| 20260906084858 | 20 | 105 | 8.0 | 12.9 | 0.00 | 0.00 | 0.00 | 93 | 1012.6 |
| 20260906084502 | 20 | 107 | 9.7 | 14.5 | 0.00 | 0.00 | 0.00 | 93 | 1012.6 |
| 20260906083902 | 20 | 105 | 8.0 | 12.9 | 0.00 | 0.00 | 0.00 | 93 | 1012.5 |
| 20260906083101 | 20 | 96 | 8.0 | 12.9 | 0.00 | 0.00 | 0.00 | 93 | 1012.5 |
| 20260906082850 | 20 | 105 | 6.4 | 14.5 | 0.00 | 0.00 | 0.00 | 93 | 1012.4 |
| 20260906081901 | 21 | 95 | 8.0 | 14.5 | 0.00 | 0.00 | 0.00 | 93 | 1012.3 |
| 20260906081502 | 20 | 97 | 9.7 | 16.1 | 0.00 | 0.00 | 0.00 | 92 | 1012.4 |
| 20260906080854 | 21 | 98 | 6.4 | 12.9 | 0.00 | 0.00 | 0.00 | 93 | 1012.3 |
| 20260906075859 | 21 | 96 | 6.4 | 12.9 | 0.00 | 0.00 | 0.00 | 93 | 1012.3 |
| 20260906074503 | 20 | 92 | 4.8 | 12.9 | 0.00 | 0.00 | 0.00 | 93 | 1012.5 |
| 20260906073750 | 21 | 106 | 8.0 | 16.1 | 0.00 | 0.00 | 0.00 | 93 | 1012.4 |
| 20260906073102 | 20 | 70 | 9.7 | 17.7 | 0.00 | 0.00 | 0.00 | 93 | 1012.5 |
| 20260906071502 | 21 | 93 | 8.0 | 11.3 | 0.00 | 0.00 | 0.00 | 93 | 1012.6 |
| 20260906070433 | 21 | 98 | 4.8 | 8.0 | 0.00 | 0.00 | 0.00 | 93 | 1012.7 |
| 20260906065443 | 21 | 100 | 4.8 | 8.0 | 0.00 | 0.00 | 0.00 | 92 | 1012.9 |
| 20260906064503 | 21 | 100 | 6.4 | 8.0 | 0.00 | 0.00 | 0.00 | 93 | 1013.2 |
| 20260906064435 | 21 | 105 | 4.8 | 6.4 | 0.00 | 0.00 | 0.00 | 93 | 1013.1 |
| 20260906063422 | 21 | 103 | 4.8 | 9.7 | 0.00 | 0.00 | 0.00 | 92 | 1012.9 |
| 20260906063103 | 21 | 95 | 4.8 | 11.3 | 0.00 | 0.00 | 0.00 | 92 | 1013.0 |
| 20260906062354 | 21 | 108 | 4.8 | 9.7 | 0.00 | 0.00 | 0.00 | 93 | 1012.9 |
| 20260906061506 | 21 | 102 | 4.8 | 11.3 | 0.00 | 0.00 | 0.00 | 92 | 1013.0 |
| 20260906061319 | 21 | 80 | 4.8 | 11.3 | 0.00 | 0.00 | 0.00 | 92 | 1012.9 |
| 20260906060325 | 21 | 101 | 6.4 | 11.3 | 0.00 | 0.00 | 0.00 | 92 | 1012.9 |
| 20260906060105 | 21 | 107 | 8.0 | 12.9 | 0.00 | 0.00 | 0.00 | 92 | 1013.0 |
| 20260906054503 | 21 | 104 | 6.4 | 9.7 | 0.00 | 0.00 | 0.00 | 92 | 1013.0 |
| 20260906054139 | 21 | 110 | 3.2 | 6.4 | 0.00 | 0.00 | 0.00 | 92 | 1013.0 |
| 20260906053138 | 21 | 100 | 1.6 | 4.8 | 0.00 | 0.00 | 0.00 | 92 | 1013.0 |
| 20260906053104 | 21 | 100 | 3.2 | 4.8 | 0.00 | 0.00 | 0.00 | 92 | 1013.1 |
| 20260906052127 | 21 | 101 | 1.6 | 4.8 | 0.00 | 0.00 | 0.00 | 92 | 1013.1 |
| 20260906051503 | 21 | 101 | 3.2 | 6.4 | 0.00 | 0.00 | 0.00 | 92 | 1013.0 |
| 20260906051138 | 21 | 76 | 1.6 | 3.2 | 0.00 | 0.00 | 0.00 | 92 | 1013.1 |
| 20260906050139 | 21 | 76 | 3.2 | 4.8 | 0.00 | 0.00 | 0.00 | 92 | 1013.2 |
| 20260906050107 | 21 | 76 | 3.2 | 6.4 | 0.00 | 0.00 | 0.00 | 92 | 1013.2 |
| 20260906045114 | 21 | 76 | 3.2 | 6.4 | 0.00 | 0.00 | 0.00 | 92 | 1013.4 |
| 20260906044503 | 21 | 76 | 4.8 | 8.0 | 0.00 | 0.00 | 0.00 | 92 | 1013.4 |
| 20260906044053 | 21 | 83 | 3.2 | 6.4 | 0.00 | 0.00 | 0.00 | 92 | 1013.3 |
| 20260906043102 | 21 | 81 | 3.2 | 6.4 | 0.00 | 0.00 | 0.00 | 93 | 1013.4 |
| 20260906043048 | 21 | 81 | 1.6 | 4.8 | 0.00 | 0.00 | 0.00 | 93 | 1013.4 |
| 20260906042056 | 21 | 80 | 1.6 | 3.2 | 0.00 | 0.00 | 0.00 | 92 | 1013.3 |
| 20260906041503 | 21 | 78 | 1.6 | 6.4 | 0.00 | 0.00 | 0.00 | 92 | 1013.4 |
| 20260906040114 | 21 | 75 | 4.8 | 8.0 | 0.00 | 0.00 | 0.00 | 92 | 1013.4 |
| 20260906034502 | 21 | 83 | 3.2 | 4.8 | 0.00 | 0.00 | 0.00 | 92 | 1013.2 |
| 20260906033615 | 21 | 83 | 1.6 | 1.6 | 0.00 | 0.00 | 0.00 | 92 | 1013.2 |
| 20260906033126 | 21 | 83 | 1.6 | 3.2 | 0.00 | 0.00 | 0.00 | 92 | 1013.2 |
| 20260906032627 | 22 | 83 | 0.0 | 1.6 | 0.00 | 0.00 | 0.00 | 91 | 1013.1 |
| 20260906031638 | 22 | 83 | 1.6 | 3.2 | 0.00 | 0.00 | 0.00 | 92 | 1013.2 |
| 20260906031506 | 21 | 83 | 1.6 | 4.8 | 0.00 | 0.00 | 0.00 | 92 | 1013.3 |
| 20260906025544 | 22 | 82 | 1.6 | 3.2 | 0.00 | 0.00 | 0.00 | 91 | 1013.3 |
| 20260906024535 | 22 | 82 | 3.2 | 4.8 | 0.00 | 0.00 | 0.00 | 90 | 1013.3 |
| 20260906024506 | 22 | 82 | 3.2 | 6.4 | 0.00 | 0.00 | 0.00 | 90 | 1013.4 |
| 20260906023541 | 22 | 89 | 1.6 | 4.8 | 0.00 | 0.00 | 0.00 | 90 | 1013.5 |
| 20260906023104 | 22 | 89 | 3.2 | 6.4 | 0.00 | 0.00 | 0.00 | 90 | 1013.3 |
| 20260906022548 | 22 | 94 | 3.2 | 4.8 | 0.00 | 0.00 | 0.00 | 90 | 1013.0 |
| 20260906021503 | 22 | 105 | 1.6 | 3.2 | 0.00 | 0.00 | 0.00 | 90 | 1013.0 |
| 20260906020443 | 22 | 105 | 1.6 | 6.4 | 0.00 | 0.00 | 0.00 | 90 | 1012.7 |
| 20260906015406 | 23 | 103 | 3.2 | 6.4 | 0.00 | 0.00 | 0.00 | 89 | 1012.1 |
| 20260906014505 | 23 | 107 | 3.2 | 8.0 | 0.00 | 0.00 | 0.00 | 89 | 1012.1 |
| 20260906013003 | 23 | 108 | 4.8 | 9.7 | 0.00 | 0.00 | 0.00 | 88 | 1011.8 |
| 20260906011607 | 23 | 112 | 8.0 | 14.5 | 0.00 | 0.00 | 0.00 | 87 | 1011.5 |
| 20260906011003 | 23 | 138 | 4.8 | 11.3 | 0.00 | 0.00 | 0.00 | 87 | 1011.4 |
| 20260906010003 | 23 | 111 | 6.4 | 14.5 | 0.00 | 0.00 | 0.00 | 86 | 1011.2 |
| 20260906005935 | 24 | 101 | 6.4 | 11.3 | 0.00 | 0.00 | 0.00 | 86 | 1011.2 |
| 20260906004605 | 24 | 132 | 4.8 | 12.9 | 0.00 | 0.00 | 0.00 | 85 | 1011.3 |
| 20260906003752 | 25 | 165 | 4.8 | 11.3 | 0.00 | 0.00 | 0.00 | 84 | 1011.1 |
| 20260906003003 | 25 | 117 | 6.4 | 9.7 | 0.00 | 0.00 | 0.00 | 84 | 1011.1 |
| 20260906002720 | 25 | 119 | 4.8 | 11.3 | 0.00 | 0.00 | 0.00 | 83 | 1011.1 |
| 20260906001648 | 25 | 109 | 6.4 | 11.3 | 0.00 | 0.00 | 0.00 | 83 | 1011.0 |
| 20260906001602 | 25 | 100 | 8.0 | 12.9 | 0.00 | 0.00 | 0.00 | 82 | 1011.0 |
| 20260906000629 | 25 | 99 | 4.8 | 11.3 | 0.00 | 0.00 | 0.00 | 83 | 1010.9 |
| 20260906000004 | 25 | 96 | 4.8 | 11.3 | 0.00 | 0.00 | 0.00 | 82 | 1010.9 |
| 20260905235631 | 26 | 117 | 4.8 | 11.3 | 0.00 | 0.00 | 0.00 | 82 | 1010.9 |
| 20260905234607 | 26 | 129 | 9.7 | 19.3 | 0.00 | 0.00 | 0.00 | 80 | 1010.8 |
| 20260905234601 | 26 | 110 | 9.7 | 17.7 | 0.00 | 0.00 | 0.00 | 80 | 1010.7 |
| 20260905233530 | 26 | 103 | 9.7 | 20.9 | 0.00 | 0.00 | 0.00 | 79 | 1010.8 |
| 20260905233001 | 26 | 70 | 11.3 | 22.5 | 0.00 | 0.00 | 0.00 | 78 | 1010.7 |
| 20260905231603 | 26 | 88 | 11.3 | 22.5 | 0.00 | 0.00 | 0.00 | 77 | 1010.7 |
| 20260905231307 | 27 | 108 | 12.9 | 24.1 | 0.00 | 0.00 | 0.00 | 76 | 1010.6 |
| 20260905230315 | 27 | 74 | 12.9 | 24.1 | 0.00 | 0.00 | 0.00 | 77 | 1010.4 |
| 20260905230004 | 26 | 89 | 14.5 | 20.9 | 0.00 | 0.00 | 0.00 | 77 | 1010.4 |
| 20260905225301 | 27 | 96 | 11.3 | 22.5 | 0.00 | 0.00 | 0.00 | 77 | 1010.3 |
| 20260905224610 | 26 | 87 | 12.9 | 24.1 | 0.00 | 0.00 | 0.00 | 77 | 1010.3 |
| 20260905224323 | 27 | 65 | 11.3 | 25.7 | 0.00 | 0.00 | 0.00 | 76 | 1010.2 |
| 20260905223323 | 27 | 55 | 12.9 | 25.7 | 0.00 | 0.00 | 0.00 | 78 | 1010.1 |
| 20260905223002 | 26 | 62 | 12.9 | 25.7 | 0.00 | 0.00 | 0.00 | 77 | 1010.1 |
| 20260905222252 | 27 | 63 | 14.5 | 27.4 | 0.00 | 0.00 | 0.00 | 77 | 1009.9 |
| 20260905221505 | 26 | 102 | 16.1 | 29.0 | 0.00 | 0.00 | 0.00 | 77 | 1009.8 |
| 20260905221308 | 27 | 65 | 14.5 | 27.4 | 0.00 | 0.00 | 0.00 | 77 | 1009.8 |
| 20260905220312 | 27 | 72 | 11.3 | 22.5 | 0.00 | 0.00 | 0.00 | 78 | 1009.9 |
| 20260905215301 | 27 | 110 | 9.7 | 22.5 | 0.00 | 0.00 | 0.00 | 79 | 1010.1 |
| 20260905214502 | 26 | 77 | 11.3 | 24.1 | 0.00 | 0.00 | 0.00 | 79 | 1010.4 |
| 20260905214252 | 26 | 101 | 11.3 | 22.5 | 0.00 | 0.00 | 0.00 | 80 | 1010.3 |
| 20260905213309 | 26 | 75 | 8.0 | 16.1 | 0.00 | 0.00 | 0.00 | 80 | 1010.4 |
| 20260905213110 | 26 | 80 | 8.0 | 17.7 | 0.00 | 0.00 | 0.00 | 80 | 1010.5 |
| 20260905212241 | 26 | 79 | 8.0 | 16.1 | 0.00 | 0.00 | 0.00 | 80 | 1010.5 |
| 20260905211508 | 26 | 79 | 6.4 | 16.1 | 0.00 | 0.00 | 0.00 | 80 | 1010.6 |
| 20260905211243 | 26 | 63 | 8.0 | 14.5 | 0.00 | 0.00 | 0.00 | 81 | 1010.5 |
| 20260905210229 | 26 | 82 | 8.0 | 16.1 | 0.00 | 0.00 | 0.00 | 80 | 1010.5 |
| 20260905210107 | 26 | 65 | 8.0 | 17.7 | 0.00 | 0.00 | 0.00 | 80 | 1010.5 |
| 20260905204504 | 26 | 102 | 11.3 | 22.5 | 0.00 | 0.00 | 0.00 | 79 | 1010.6 |
| 20260905204102 | 27 | 39 | 12.9 | 25.7 | 0.00 | 0.00 | 0.00 | 79 | 1010.6 |
| 20260905203126 | 26 | 73 | 16.1 | 25.7 | 0.00 | 0.00 | 0.00 | 79 | 1010.6 |
| 20260905203124 | 26 | 68 | 16.1 | 24.1 | 0.00 | 0.00 | 0.00 | 79 | 1010.6 |
| 20260905202136 | 26 | 76 | 14.5 | 29.0 | 0.00 | 0.00 | 0.00 | 80 | 1010.6 |
| 20260905201609 | 26 | 57 | 14.5 | 30.6 | 0.00 | 0.00 | 0.00 | 80 | 1010.8 |
| 20260905201125 | 26 | 56 | 17.7 | 29.0 | 0.00 | 0.00 | 0.00 | 79 | 1010.8 |
| 20260905200120 | 26 | 57 | 19.3 | 30.6 | 0.00 | 0.00 | 0.00 | 80 | 1011.1 |
| 20260905200118 | 26 | 24 | 16.1 | 29.0 | 0.00 | 0.00 | 0.00 | 80 | 1011.1 |
| 20260905194502 | 26 | 83 | 11.3 | 24.1 | 0.00 | 0.00 | 0.00 | 84 | 1011.6 |
| 20260905193923 | 26 | 103 | 14.5 | 24.1 | 0.00 | 0.00 | 0.00 | 84 | 1011.6 |
| 20260905193103 | 25 | 72 | 12.9 | 25.7 | 0.00 | 0.00 | 0.00 | 86 | 1011.6 |
| 20260905192924 | 26 | 79 | 12.9 | 25.7 | 0.00 | 0.00 | 0.00 | 86 | 1011.6 |
| 20260905191942 | 25 | 63 | 17.7 | 25.7 | 0.00 | 0.00 | 0.00 | 86 | 1011.5 |
| 20260905191502 | 25 | 71 | 20.9 | 27.4 | 0.00 | 0.00 | 0.00 | 85 | 1011.6 |
| 20260905190906 | 25 | 66 | 14.5 | 24.1 | 0.00 | 0.00 | 0.00 | 86 | 1011.7 |
| 20260905190106 | 25 | 76 | 12.9 | 19.3 | 0.00 | 0.00 | 0.00 | 88 | 1012.1 |
| 20260905184734 | 24 | 112 | 4.8 | 11.3 | 0.00 | 0.00 | 0.00 | 88 | 1012.4 |
| 20260905184504 | 24 | 78 | 6.4 | 12.9 | 0.00 | 0.00 | 0.00 | 88 | 1012.4 |
| 20260905183103 | 24 | 81 | 3.2 | 12.9 | 0.00 | 0.00 | 0.00 | 89 | 1012.5 |
| 20260905182551 | 24 | 97 | 4.8 | 11.3 | 0.00 | 0.00 | 0.00 | 88 | 1012.4 |
| 20260905181603 | 24 | 127 | 4.8 | 9.7 | 0.00 | 0.00 | 0.00 | 89 | 1012.6 |
| 20260905181503 | 23 | 92 | 6.4 | 11.3 | 0.00 | 0.00 | 0.00 | 89 | 1012.7 |
| 20260905180618 | 24 | 68 | 3.2 | 14.5 | 0.00 | 0.00 | 0.00 | 88 | 1012.6 |
| 20260905180105 | 23 | 152 | 4.8 | 12.9 | 0.00 | 0.00 | 0.00 | 90 | 1012.7 |
| 20260905175623 | 23 | 118 | 6.4 | 14.5 | 0.00 | 0.00 | 0.00 | 90 | 1012.7 |
| 20260905174639 | 23 | 110 | 8.0 | 12.9 | 0.00 | 0.00 | 0.00 | 90 | 1012.8 |
| 20260905174503 | 23 | 124 | 8.0 | 14.5 | 0.00 | 0.00 | 0.00 | 90 | 1012.9 |
| 20260905173616 | 23 | 97 | 6.4 | 16.1 | 0.00 | 0.00 | 0.00 | 90 | 1013.0 |
| 20260905173002 | 22 | 49 | 6.4 | 14.5 | 0.00 | 0.00 | 0.00 | 90 | 1013.2 |
| 20260905171603 | 22 | 106 | 8.0 | 16.1 | 0.00 | 0.00 | 0.00 | 91 | 1013.4 |
| 20260905171444 | 23 | 84 | 6.4 | 12.9 | 0.00 | 0.00 | 0.00 | 91 | 1013.4 |
| 20260905170437 | 22 | 136 | 6.4 | 12.9 | 0.00 | 0.00 | 0.00 | 90 | 1013.4 |
| 20260905170004 | 22 | 139 | 4.8 | 12.9 | 0.00 | 0.00 | 0.00 | 91 | 1013.5 |
| 20260905165431 | 22 | 100 | 6.4 | 11.3 | 0.00 | 0.00 | 0.00 | 91 | 1013.5 |
| 20260905164602 | 22 | 77 | 6.4 | 14.5 | 0.00 | 0.00 | 0.00 | 91 | 1013.5 |
| 20260905164401 | 22 | 96 | 6.4 | 12.9 | 0.00 | 0.00 | 0.00 | 92 | 1013.6 |
| 20260905163343 | 22 | 86 | 4.8 | 12.9 | 0.00 | 0.00 | 0.00 | 92 | 1013.5 |
| 20260905163002 | 22 | 113 | 4.8 | 11.3 | 0.00 | 0.00 | 0.00 | 93 | 1013.6 |